Location: Dalton
(34.7700°N, 84.9700°W)
Time: 23:59:00
(UTC-04:00)

ISS - Pass Details

Date: 14 October 2017
Orbit: 401 x 408 km, 51.6° (Epoch: 17 October)

Event Time Altitude Azimuth Distance (km) Brightness Sun altitude
Rises 21:02:06 0° 304° (NW) 2,321 1.0 -24.6°
Reaches altitude 10° 21:04:16 10° 296° (WNW) 1,460 -0.1 -25.0°
Enters shadow 21:06:20 29° 267° (W) 776 -1.8 -25.5°
